Angleton, TX

3:05 AM CDT on April 26, 2017 (GMT -0500)
Brazoria County

Weather History for KLBX - December, 2012

Change the Weather History Date:

Tuesday, December 11, 2012

  Actual Average Record
Temperature  
Mean Temperature 42 °F -  
Max Temperature 54 °F 62 °F 81 °F (2015)
Min Temperature 30 °F 45 °F 30 °F (2008)
Degree Days  
Heating Degree Days 23    
Moisture  
Dew Point 28 °F    
Average Humidity 58    
Maximum Humidity 82    
Minimum Humidity 33    
Precipitation  
Precipitation 0.00 in - - ()
Sea Level Pressure  
Sea Level Pressure 30.14 in    
Wind  
Wind Speed 5 mph (NNE)    
Max Wind Speed 12 mph    
Max Gust Speed -    
Visibility 10 miles    
Events      
Averages and records for this station are not official NWS values.
T = Trace of Precipitation, MM = Missing Value Source: NWS Daily Summary

Daily Weather History Graph

Daily Weather History Graph

Search for Another Location

Airport or City:

Trip Planner

Search our weather history database for the weather conditions in past years. The results will help you decide how hot, cold, wet, or windy it might be!

Date:

Astronomy

Dec. 11, 2012 Rise Set
Actual Time 7:05 AM CST 5:24 PM CST
Civil Twilight 6:39 AM CST 5:50 PM CST
Nautical Twilight 6:10 AM CST 6:20 PM CST
Astronomical Twilight 5:41 AM CST 6:49 PM CST
Moon 5:06 AM CST (12/11) 4:01 PM CST (12/11)
Length of Visible Light 11h 11m
Length of Day
10h 18m
Waning Crescent, 4% of the Moon is Illuminated
Dec 11
Waning Crescent
Dec 13
New
Dec 19
First Quarter
Dec 28
Full
Jan 4
Last Quarter

Hourly Weather History & Observations

Time (CST) Temp. Windchill Dew Point Humidity Pressure Visibility Wind Dir Wind Speed Gust Speed Precip Events Conditions
12:53 AM 37.9 °F 33.5 °F 27.0 °F 65% 30.12 in 10.0 mi North 5.8 mph - N/A   Clear
1:53 AM 37.0 °F 31.6 °F 27.0 °F 67% 30.11 in 10.0 mi North 6.9 mph - N/A   Clear
2:53 AM 35.1 °F 32.2 °F 27.0 °F 72% 30.11 in 10.0 mi North 3.5 mph - N/A   Clear
3:53 AM 34.0 °F - 27.0 °F 75% 30.12 in 10.0 mi Calm Calm - N/A   Clear
4:53 AM 30.9 °F 27.5 °F 26.1 °F 82% 30.12 in 10.0 mi North 3.5 mph - N/A   Clear
6:53 AM 30.0 °F 23.2 °F 25.0 °F 82% 30.13 in 10.0 mi North 6.9 mph - N/A   Clear
7:53 AM 35.1 °F 28.6 °F 28.0 °F 76% 30.15 in 10.0 mi North 8.1 mph - N/A   Clear
8:53 AM 41.0 °F 34.7 °F 27.0 °F 57% 30.16 in 10.0 mi NNE 10.4 mph - N/A   Clear
9:53 AM 44.1 °F 38.1 °F 27.0 °F 51% 30.17 in 10.0 mi NNE 11.5 mph - N/A   Clear
10:53 AM 48.0 °F - 27.0 °F 44% 30.16 in 10.0 mi ENE 9.2 mph - N/A   Clear
11:53 AM 48.9 °F - 26.1 °F 41% 30.16 in 10.0 mi NE 6.9 mph - N/A   Clear
12:06 PM 50.0 °F - 26.6 °F 40% 30.15 in 2.0 mi North 4.6 mph - N/A   Haze
12:15 PM 51.8 °F - 26.6 °F 38% 30.15 in 10.0 mi Variable 4.6 mph - N/A   Clear
12:53 PM 51.1 °F - 26.1 °F 38% 30.13 in 10.0 mi Variable 6.9 mph - N/A   Clear
1:53 PM 54.0 °F - 25.0 °F 33% 30.11 in 10.0 mi NE 8.1 mph - N/A   Clear
2:53 PM 54.0 °F - 26.1 °F 34% 30.11 in 10.0 mi North 8.1 mph - N/A   Clear
3:53 PM 52.0 °F - 24.1 °F 34% 30.10 in 10.0 mi North 6.9 mph - N/A   Clear
4:53 PM 51.1 °F - 26.1 °F 38% 30.11 in 10.0 mi NNE 4.6 mph - N/A   Scattered Clouds
5:53 PM 46.9 °F - 30.9 °F 54% 30.13 in 10.0 mi Calm Calm - N/A   Clear
6:53 PM 44.1 °F - 34.0 °F 68% 30.15 in 10.0 mi Calm Calm - N/A   Clear
7:53 PM 42.1 °F - 33.1 °F 70% 30.16 in 10.0 mi Calm Calm - N/A   Clear
8:53 PM 39.9 °F - 32.0 °F 73% 30.19 in 10.0 mi Calm Calm - N/A   Clear
9:53 PM 39.0 °F - 34.0 °F 82% 30.20 in 10.0 mi Calm Calm - N/A   Mostly Cloudy
10:53 PM 39.9 °F - 34.0 °F 79% 30.22 in 10.0 mi Calm Calm - N/A   Mostly Cloudy